Regional Weather Roundup
Issued by NWS

Home | Current Version | Previous Version | Text Only | Print | Product List | Glossary Off
Versions: 1 2 3 4 5 6 7 8 9 10 11 12 13 14 15 16 17 18 19 20 21 22 23 24 25 26 27 28 29 30 31 32 33 34 35 36 37 38 39 40 41 42 43 44 45 46 47 48 49 50

000
ASUS43 KMKX 050900
RWRWI

WISCONSIN REGIONAL WEATHER ROUNDUP
NATIONAL WEATHER SERVICE MILWAUKEE/SULLIVAN WI
400 AM CDT TUE MAY 05 2015

NOTE: "FAIR" INDICATES FEW OR NO CLOUDS BELOW 12,000 FEET WITH NO
SIGNIFICANT WEATHER AND/OR OBSTRUCTIONS TO VISIBILITY.

WIZ001-002-006>008-014>016-023>028-051000-
NORTHWEST WISCONSIN

CITY           SKY/WX    TMP DP  RH WIND       PRES   REMARKS
SUPERIOR ARPT  CLEAR     30  28  93 CALM      30.26S
ASHLAND        CLEAR     31  30  96 CALM      30.28S
HAYWARD        CLEAR     35  31  85 CALM      30.26S
SIREN          CLEAR     33  27  76 CALM      30.24S
CUMBERLAND     CLEAR     43  28  56 E6        30.23F
RICE LAKE      CLEAR     44  31  58 CALM      30.25S
CHETEK         CLEAR     51  33  51 NE5       30.24S
LADYSMITH      CLEAR     50  36  58 E5        30.27F
EAU CLAIRE     NOT AVBL
MENOMONIE      PTCLDY    50  35  56 NE3       30.21F
NEW RICHMOND   CLEAR     51  24  35 E9        30.20S
OSCEOLA        CLEAR     50  28  41 E7        30.23F
$$

WIZ003>005-009-010-017-018-051000-
NORTH CENTRAL WISCONSIN

CITY           SKY/WX    TMP DP  RH WIND       PRES   REMARKS
MANITOWISH WTR CLEAR     33  31  93 CALM      30.29S
ARBOR VITAE    CLEAR     42  36  79 CALM      30.28S
WOODRUFF       CLEAR     42  36  79 CALM      30.28S
RHINELANDER    CLEAR     39  36  89 CALM      30.30R
EAGLE RIVER    CLEAR     36  35  97 CALM      30.29S
LAND O LAKES   CLEAR     33  32  98 CALM      30.30S
PHILLIPS       CLEAR     44  34  68 CALM      30.27S
TOMAHAWK       PTCLDY    34  32  91 CALM      30.29S
MEDFORD        MOCLDY    43  37  77 E8        30.25F
MERRILL        PTCLDY    40  38  92 CALM      30.27F
$$

WIZ029-030-035-036-043>047-051000-
CENTRAL WISCONSIN

CITY           SKY/WX    TMP DP  RH WIND       PRES   REMARKS
WAUSAU         CLOUDY    47  34  60 E9        30.24F
MOSINEE        CLOUDY    45  36  70 NE8       30.26F
MARSHFIELD     CLOUDY    49  37  63 E12       30.23F
STEVENS POINT  CLOUDY    47  36  65 NE8       30.25F
WAUPACA        CLOUDY    50  39  66 N3        30.26S
WAUTOMA        NOT AVBL
WISC RAPIDS    CLOUDY    51  35  54 E10       30.24S
CAMP DOUGLAS   NOT AVBL
$$

WIZ011>013-019>022-031-037>040-048>050-051000-
NORTHEAST WISCONSIN

CITY           SKY/WX    TMP DP  RH WIND       PRES   REMARKS
ANTIGO         MOCLDY    45  33  64 E5        30.29R
SHAWANO        CLOUDY    51  38  60 NE7       30.28S
OCONTO         CLOUDY    42  37  82 CALM      30.28F
STURGEON BAY   CLOUDY    46  32  57 NE6       30.30S
GREEN BAY      CLOUDY    50  39  66 NE10      30.26S
MANITOWOC      NOT AVBL
APPLETON       CLOUDY    50  34  53 NE7       30.25S
CLINTONVILLE   CLOUDY    46  36  66 NE6       30.26F
OSHKOSH        CLOUDY    54  35  48 E9        30.23S
$$

WIZ032>034-041-042-053>061-051000-
SOUTHWEST WISCONSIN

CITY           SKY/WX    TMP DP  RH WIND       PRES   REMARKS
LA CROSSE      CLOUDY    58  43  57 SE5       30.16S
SPARTA         CLOUDY    54  40  59 E8        30.19F
VIROQUA        CLOUDY    56  43  63 E9        30.17S
BOSCOBEL       LGT RAIN  53  47  79 VRB6      30.18R
PRAIRIE DU CHI DRIZZLE   54  48  80 E8        30.14F
PLATTEVILLE    CLOUDY    51  48  90 E14       30.16F
$$

WIZ056-057-062-063-064-067-068-051000-
SOUTH CENTRAL WISCONSIN

CITY           SKY/WX    TMP DP  RH WIND       PRES   REMARKS
REEDSBURG      CLOUDY    54  41  61 E7        30.19S
BARABOO/DELLS  NOT AVBL
LONE ROCK      HVY RAIN  53  46  77 E8        30.20R
MINERAL POINT  LGT RAIN  52  46  82 E10       30.17F
MADISON        LGT RAIN  53  44  71 E6        30.21R
MIDDLETON      CLOUDY    54  44  67 E3        30.21R
WATERTOWN      RAIN      53  40  61 E6        30.21R
MONROE         LGT RAIN  50  46  87 E7        30.17F
JANESVILLE     LGT RAIN  52  46  82 E8        30.18F
$$

WIZ051-052-058>065-066-070>072-051000-
SOUTHEAST WISCONSIN

CITY           SKY/WX    TMP DP  RH WIND       PRES   REMARKS
MILWAUKEE      LGT RAIN  49  37  63 NE3       30.23R
WAUKESHA       LGT RAIN  52  36  54 E5        30.23R
MILWAUKEE/TIMM CLOUDY    52  32  46 NE5       30.23S
RACINE         LGT RAIN  48  41  76 N5        30.24R
BURLINGTON     RAIN      48  44  85 CALM      30.22R
KENOSHA        LGT RAIN  50  46  86 CALM      30.23R FOG
FOND DU LAC    CLOUDY    53  34  48 NE8       30.24R
SHEBOYGAN      CLOUDY    47  37  68 NE10      30.25R
WEST BEND      CLOUDY    50  34  53 NE7       30.23R
JUNEAU         CLOUDY    54  33  44 E5        30.23R
$$

LSZ147-162-051000-
LAKE SUPERIOR

STATION/POSITION TIME  TEMP    WIND        PRES    WAVE
                       AIR SEA DIR/SP/G            HT/PER
                 (UTC) (F)     (DEG/KT/KT) (MB)    (FT/S)
W MID LAKE BUOY  0750   39 35  170/  8/ 10 1025.7R   0
DEVILS ISLAND    0800   51     120/  3/  3 1025.3R
PORT WING        0840   37     170/  4/  5 1024.7S
SAXON HARBOR     0840   36        CALM     1024.7R
$$

LMZ867-665-643>646-051000-
LAKE MICHIGAN

STATION/POSITION TIME  TEMP    WIND        PRES    WAVE
                       AIR SEA DIR/SP/G            HT/PER
                 (UTC) (F)     (DEG/KT/KT) (MB)    (FT/S)
CHAMBERS ISLAND  0800   43     360/  2/  3 1025.7S
NORTHPORT PIER   0800   44     320/  2/  2 1025.7R
SISTER BAY       0747   47     110/  1/  6   N/A
KEWAUNEE LAKESHO 0800   48      30/ 12/ 15 1023.9S
SHEBOYGAN LAKESH 0800   45      10/ 10/ 12 1024.8R
PORT WASHINGTON  0840   52      30/  5/  8 1024.4R
ATWATER BUOY     0800   47     350/  8/ 10 1024.2R
MILWAUKEE LAKESH 0800   53     360/  6/  7   N/A
KENOSHA   LAKESH 0800   53      20/  8/  8 1022.7S
$$

TC  - TEMPERATURE IN CELSIUS
VSB - VISIBILITY IN STATUTE MILES
WCI - WIND CHILL INDEX
HX  - HEAT INDEX




USA.gov is the U.S. government's official web portal to all federal, state and local government web resources and services.